Location: Forestville
(38.4740°N, 122.8890°W)
Time: 05:11:13
(UTC-07:00)

Amateur Radio Satellites - All Passes

Search period start: 23 August 2017 04:41
Search period end: 24 August 2017 04:41
Location: Forestville, 38.4740°N, 122.8890°W

Satellite Date Start Highest point End Downlink Frequencies (MHz)
Time Altitude Azimuth
BEESAT 3 23 Aug 04:47:39 04:51:34 59° 118° (ESE) 04:55:34 437.485
ITUPSAT 1 23 Aug 04:50:00 04:53:07 17° 267° (W) 04:56:13 437.325
KKS-1 23 Aug 05:03:41 05:08:02 53° 73° (ENE) 05:12:23 437.445
BEESAT 2 23 Aug 05:07:52 05:11:19 29° 113° (ESE) 05:14:50 435.950
MOZHAYETS 4 23 Aug 05:15:18 05:16:08 10° 270° (W) 05:16:58
YUBILEINY 23 Aug 05:21:50 05:28:02 22° 279° (W) 05:34:13 435.215
AO-7 23 Aug 05:32:06 05:40:17 63° 292° (WNW) 05:48:25 .
STARS 23 Aug 05:35:03 05:39:15 47° 73° (ENE) 05:43:28 437.465
CUBESAT XI-V 23 Aug 05:38:17 05:42:21 29° 264° (W) 05:46:27 437.345
ITAMSAT 1 23 Aug 06:01:48 06:05:43 22° 295° (WNW) 06:09:36 435.822/435.867
DOVE 4 23 Aug 06:10:00 06:14:10 38° 97° (E) 06:18:07 437.250
AO-85 23 Aug 06:10:54 06:14:21 29° 308° (NW) 06:17:48 145.980
BEESAT 3 23 Aug 06:27:18 06:29:30 14° 315° (NW) 06:31:44 437.485
NUDT-PHONESAT 23 Aug 06:31:21 06:33:15 13° 93° (E) 06:35:09 437.300
LilacSat-2 23 Aug 06:33:46 06:36:52 22° 95° (E) 06:39:56 437.200
XW-2D 23 Aug 06:34:38 06:37:41 22° 95° (E) 06:40:43 145.860 - 145.880
KKS-1 23 Aug 06:42:48 06:44:52 13° 268° (W) 06:46:57 437.445
XW-2B 23 Aug 06:45:31 06:48:53 28° 97° (E) 06:52:15 145.730 - 145.750
BEESAT 2 23 Aug 06:45:46 06:49:03 24° 310° (NW) 06:52:21 435.950
CUTE-I 23 Aug 06:49:24 06:54:00 29° 96° (E) 06:58:35 437.470
NO-84 23 Aug 06:51:32 06:52:30 11° 29° (NNE) 06:53:29 435.350 FM
XW-2C 23 Aug 07:04:26 07:08:12 51° 100° (E) 07:11:57 145.795 - 145.815
STARS 23 Aug 07:13:25 07:15:48 14° 267° (W) 07:18:12 437.465
STRAND 1 23 Aug 07:13:51 07:18:32 38° 70° (ENE) 07:23:14 437.568
XW-2F 23 Aug 07:14:18 07:18:08 66° 101° (ESE) 07:21:56 145.980 - 146.000
PCSat 23 Aug 07:25:26 07:30:32 40° 56° (NE) 07:35:35 145.827
AO-7 23 Aug 07:27:50 07:31:24 13° 313° (NW) 07:34:58 .
SO-50 23 Aug 07:32:49 07:37:09 41° 54° (NE) 07:41:31 436.795
KAITUO 1B 23 Aug 07:34:53 07:38:42 84° 283° (WNW) 07:42:30 145.475/437.950
Tancredo 1 23 Aug 07:35:47 07:37:33 15° 130° (SE) 07:39:20 437.200
CUBEBUG 2 23 Aug 07:41:50 07:43:26 12° 92° (E) 07:45:04 437.445
SEEDS 23 Aug 07:45:04 07:47:42 16° 93° (E) 07:50:19 437.485
DOVE 4 23 Aug 07:48:36 07:51:30 17° 295° (WNW) 07:54:19 437.250
NUDT-PHONESAT 23 Aug 08:03:47 08:07:14 35° 287° (WNW) 08:10:41 437.300
HO-68 23 Aug 08:07:05 08:14:01 50° 101° (E) 08:20:55 435.675
LilacSat-2 23 Aug 08:07:56 08:11:01 23° 290° (WNW) 08:14:06 437.200
XW-2D 23 Aug 08:08:42 08:11:45 23° 290° (WNW) 08:14:49 145.860 - 145.880
XW-2B 23 Aug 08:20:11 08:22:50 18° 291° (WNW) 08:25:29 145.730 - 145.750
AAUSAT CUBESAT 2 23 Aug 08:22:05 08:25:01 18° 93° (E) 08:27:55 437.432
XW-2A 23 Aug 08:23:07 08:26:14 32° 98° (E) 08:29:20 145.665 - 145.685
NO-84 23 Aug 08:27:09 08:30:13 86° 226° (SW) 08:33:30 435.350 FM
CUTE-I 23 Aug 08:29:19 08:34:00 32° 292° (WNW) 08:38:39 437.470
CUTE 1.7 + AOD 2 23 Aug 08:36:48 08:41:06 76° 285° (WNW) 08:45:22 437.475
XW-2C 23 Aug 08:40:59 08:41:54 11° 295° (WNW) 08:42:48 145.795 - 145.815
STRAND 1 23 Aug 08:53:45 08:57:48 23° 265° (W) 09:01:50 437.568
Oscar 11 23 Aug 09:02:38 09:05:52 20° 94° (E) 09:09:06 .
UWE-3 23 Aug 09:02:57 09:07:11 61° 100° (E) 09:11:32 435.000/436.395/437.385
RS-15 23 Aug 09:07:06 09:13:08 15° 96° (E) 09:19:11 29.354- 29.394
PCSat 23 Aug 09:09:14 09:13:41 27° 252° (WSW) 09:18:08 145.827
Tancredo 1 23 Aug 09:09:42 09:12:29 39° 326° (NW) 09:15:15 437.200
SO-50 23 Aug 09:13:58 09:17:19 20° 249° (WSW) 09:20:41 436.795
CUBEBUG 2 23 Aug 09:16:11 09:20:19 52° 285° (WNW) 09:24:32 437.445
FO-29 23 Aug 09:18:49 09:26:10 58° 72° (ENE) 09:32:50 435.910
SEEDS 23 Aug 09:19:33 09:23:31 39° 288° (WNW) 09:27:27 437.485
O/OREOS (USA 219) 23 Aug 09:27:23 09:31:48 68° 109° (ESE) 09:36:16 437.305
ISS 23 Aug 09:29:14 09:32:28 66° 139° (SE) 09:35:44 437.550
nSIGHT-1 23 Aug 09:33:55 09:37:10 80° 139° (SE) 09:40:26 .
ZACube-1 23 Aug 09:36:23 09:40:43 79° 102° (ESE) 09:45:08 437.345
UNISAT 6 23 Aug 09:49:55 09:53:54 37° 72° (ENE) 09:57:51 437.425
HO-68 23 Aug 09:55:22 10:01:24 31° 297° (WNW) 10:07:25 435.675
AO-73 23 Aug 09:55:54 10:00:13 70° 284° (WNW) 10:04:36 145.935
AAUSAT CUBESAT 2 23 Aug 09:56:47 10:00:31 32° 289° (WNW) 10:04:13 437.432
XW-2A 23 Aug 09:57:11 09:58:38 12° 292° (WNW) 10:00:05 145.665 - 145.685
TIGRISAT 23 Aug 10:23:48 10:28:07 85° 75° (ENE) 10:32:24 435.000
EO-88 23 Aug 10:36:14 10:39:29 29° 97° (E) 10:42:42 145.990 - 145.960
DELFI C3 23 Aug 10:36:24 10:40:18 54° 100° (E) 10:44:09 145.870
Oscar 11 23 Aug 10:38:09 10:42:02 32° 289° (WNW) 10:45:54 .
PRISM 23 Aug 10:39:14 10:43:24 84° 257° (WSW) 10:47:35 437.425
UWE-3 23 Aug 10:41:40 10:43:09 12° 295° (WNW) 10:44:37 435.000/436.395/437.385
JUGNU 23 Aug 10:56:34 10:58:31 12° 176° (S) 11:00:26 437.505
FO-29 23 Aug 11:05:16 11:11:21 26° 265° (W) 11:17:02 435.910
ISS 23 Aug 11:06:50 11:09:14 18° 336° (NNW) 11:11:38 437.550
O/OREOS (USA 219) 23 Aug 11:09:57 11:11:42 12° 306° (NW) 11:13:27 437.305
RS-15 23 Aug 11:11:16 11:23:21 73° 115° (ESE) 11:35:37 29.354- 29.394
nSIGHT-1 23 Aug 11:11:41 11:13:53 17° 337° (NNW) 11:16:06 .
M-CUBED/EXP-1 PRIME 23 Aug 11:16:24 11:20:41 43° 67° (ENE) 11:25:07 437.505
AIST 2D 23 Aug 11:18:33 11:21:45 36° 74° (ENE) 11:25:00 435.315
Max Valier Satellite 23 Aug 11:21:49 11:25:23 47° 286° (WNW) 11:28:58 145.860
NANOSAT C BR1 23 Aug 11:21:50 11:24:31 17° 67° (ENE) 11:27:12 145.865
UNISAT 6 23 Aug 11:27:54 11:30:43 17° 266° (W) 11:33:31 437.425
POLYITAN 1 23 Aug 11:28:37 11:31:53 22° 68° (ENE) 11:35:07 437.675
EO-79 23 Aug 11:43:02 11:46:46 32° 71° (ENE) 11:50:31 145.935-145.965
QB50P2 23 Aug 11:43:16 11:47:06 36° 72° (ENE) 11:50:57 145.880/145.840
LO-87 23 Aug 11:56:43 12:00:00 35° 98° (E) 12:03:15 145.935 - 145.965
BUGSAT 1 23 Aug 12:01:30 12:02:10 10° 64° (ENE) 12:02:50 437.445
ESTCUBE 1 23 Aug 12:04:40 12:08:40 30° 96° (E) 12:12:39 437.505/2401.250
DUCHIFAT 1 23 Aug 12:09:09 12:13:12 51° 74° (ENE) 12:17:14 145.980
EO-88 23 Aug 12:10:35 12:12:53 16° 292° (WNW) 12:15:12 145.990 - 145.960
DELFI C3 23 Aug 12:13:33 12:14:33 11° 295° (WNW) 12:15:32 145.870
Oscar 19 23 Aug 12:35:20 12:38:15 15° 62° (ENE) 12:41:10 437.125/150
JUGNU 23 Aug 12:45:00 12:46:36 11° 186° (S) 12:48:12 437.505
M-CUBED/EXP-1 PRIME 23 Aug 12:52:03 12:55:13 19° 262° (W) 12:58:29 437.505
AIST 2D 23 Aug 12:54:10 12:55:06 11° 268° (W) 12:56:02 435.315
NANOSAT C BR1 23 Aug 12:56:02 12:59:55 37° 262° (W) 13:03:49 145.865
AO-85 23 Aug 13:02:46 13:05:30 16° 47° (NE) 13:08:20 145.980
POLYITAN 1 23 Aug 13:03:55 13:07:30 27° 264° (W) 13:11:06 437.675
BEESAT 3 23 Aug 13:06:09 13:09:20 22° 50° (NE) 13:12:29 437.485
EO-79 23 Aug 13:19:36 13:22:34 19° 266° (W) 13:25:33 145.935-145.965
SPROUT 23 Aug 13:20:15 13:24:23 50° 100° (E) 13:28:29 437.525
QB50P2 23 Aug 13:20:15 13:22:59 17° 266° (W) 13:25:44 145.880/145.840
RS-15 23 Aug 13:25:43 13:36:53 39° 319° (NW) 13:48:09 29.354- 29.394
BEESAT 2 23 Aug 13:27:26 13:29:36 14° 45° (NE) 13:31:46 435.950
DX 1 23 Aug 13:29:02 13:30:48 12° 92° (E) 13:32:33 434.975-435.025
LO-87 23 Aug 13:31:36 13:33:04 12° 293° (WNW) 13:34:33 145.935 - 145.965
BUGSAT 1 23 Aug 13:32:58 13:37:00 61° 259° (W) 13:41:00 437.445
VELOX 1 23 Aug 13:34:46 13:39:07 56° 101° (E) 13:43:25 145.980
ESTCUBE 1 23 Aug 13:41:40 13:45:19 24° 292° (WNW) 13:48:56 437.505/2401.250
DUCHIFAT 1 23 Aug 13:47:39 13:49:07 12° 269° (W) 13:50:36 145.980
50 SAT 23 Aug 13:48:48 13:51:39 25° 97° (E) 13:54:29 437.505
Tancredo 1 23 Aug 13:58:59 14:00:49 15° 24° (NNE) 14:02:39 437.200
Gurwin Techsat 1B 23 Aug 14:09:16 14:14:34 78° 75° (ENE) 14:19:53 435.225
Oscar 19 23 Aug 14:11:53 14:16:59 64° 258° (WSW) 14:22:09 437.125/150
ISS 23 Aug 14:23:08 14:24:31 12° 16° (NNE) 14:25:53 437.550
nSIGHT-1 23 Aug 14:27:25 14:28:59 13° 18° (NNE) 14:30:31 .
YUBILEINY 23 Aug 14:30:55 14:35:18 15° 77° (ENE) 14:39:39 435.215
UKube-1 23 Aug 14:35:10 14:39:19 45° 100° (E) 14:43:26 .
AO-7 23 Aug 14:37:43 14:44:59 35° 60° (ENE) 14:52:16 .
AO-85 23 Aug 14:41:52 14:46:11 60° 242° (WSW) 14:50:50 145.980
BEESAT 3 23 Aug 14:43:24 14:46:55 30° 246° (WSW) 14:50:20 437.485
SRMSAT 23 Aug 14:49:41 14:51:45 12° 182° (S) 14:53:49 437.500
SPROUT 23 Aug 14:57:45 14:59:49 13° 295° (WNW) 15:01:54 437.525
DX 1 23 Aug 15:03:02 15:07:17 53° 286° (WNW) 15:11:29 434.975-435.025
BEESAT 2 23 Aug 15:03:44 15:07:44 60° 243° (WSW) 15:11:40 435.950
VELOX 1 23 Aug 15:13:01 15:15:03 13° 296° (WNW) 15:17:05 145.980
ITUPSAT 1 23 Aug 15:14:16 15:16:21 13° 91° (E) 15:18:25 437.325
50 SAT 23 Aug 15:22:08 15:24:04 15° 292° (WNW) 15:26:00 437.505
MOZHAYETS 4 23 Aug 15:31:27 15:34:31 17° 93° (E) 15:37:36
Tancredo 1 23 Aug 15:33:23 15:36:15 65° 221° (SW) 15:39:06 437.200
ITAMSAT 1 23 Aug 15:38:00 15:43:06 58° 73° (ENE) 15:48:11 435.822/435.867
RS-15 23 Aug 15:46:29 15:54:29 19° 352° (N) 16:02:24 29.354- 29.394
Gurwin Techsat 1B 23 Aug 15:53:18 15:55:03 12° 270° (W) 15:56:49 435.225
ISS 23 Aug 15:58:27 16:01:38 47° 35° (NE) 16:04:47 437.550
nSIGHT-1 23 Aug 16:02:44 16:05:55 55° 36° (NE) 16:09:06 .
UKube-1 23 Aug 16:12:27 16:14:56 15° 295° (WNW) 16:17:24 .
BEESAT 23 Aug 16:13:19 16:18:02 56° 101° (ESE) 16:22:42 436.000
YUBILEINY 23 Aug 16:21:53 16:30:41 85° 95° (E) 16:39:28 435.215
AO-7 23 Aug 16:29:16 16:37:23 53° 258° (WSW) 16:45:32 .
ITUPSAT 1 23 Aug 16:49:48 16:54:32 61° 286° (WNW) 16:59:14 437.325
KKS-1 23 Aug 16:58:36 16:59:43 11° 91° (E) 17:00:50 437.445
MOZHAYETS 4 23 Aug 17:07:28 17:11:50 42° 288° (WNW) 17:16:11
DOVE 4 23 Aug 17:12:47 17:17:37 38° 71° (ENE) 17:22:20 437.250
ITAMSAT 1 23 Aug 17:19:50 17:22:53 16° 268° (W) 17:25:57 435.822/435.867
XW-2B 23 Aug 17:27:04 17:28:31 12° 66° (ENE) 17:29:59 145.730 - 145.750
CUBESAT XI-V 23 Aug 17:35:22 17:40:06 76° 102° (ESE) 17:44:47 437.345
ISS 23 Aug 17:35:46 17:37:49 16° 230° (SW) 17:39:52 437.550
nSIGHT-1 23 Aug 17:40:20 17:41:57 13° 231° (SW) 17:43:34 .
XW-2C 23 Aug 17:44:50 17:47:37 20° 69° (ENE) 17:50:26 145.795 - 145.815
BEESAT 23 Aug 17:52:37 17:55:17 15° 297° (WNW) 17:57:59 436.000
XW-2F 23 Aug 17:54:00 17:57:03 24° 70° (ENE) 18:00:08 145.980 - 146.000
O/OREOS (USA 219) 23 Aug 18:02:06 18:03:16 11° 53° (NE) 18:04:26 437.305
RS-15 23 Aug 18:03:21 18:13:09 27° 29° (NNE) 18:22:33 29.354- 29.394
CUTE-I 23 Aug 18:09:34 18:14:35 43° 70° (ENE) 18:19:36 437.470
KAITUO 1B 23 Aug 18:13:19 18:16:40 33° 72° (ENE) 18:20:03 145.475/437.950
YUBILEINY 23 Aug 18:22:44 18:28:34 19° 295° (WNW) 18:34:25 435.215
KKS-1 23 Aug 18:32:15 18:36:38 61° 286° (WNW) 18:40:59 437.445
HO-68 23 Aug 18:34:34 18:40:44 33° 63° (ENE) 18:46:53 435.675
NUDT-PHONESAT 23 Aug 18:40:48 18:44:26 76° 76° (ENE) 18:48:08 437.300
LilacSat-2 23 Aug 18:47:19 18:51:00 56° 260° (W) 18:54:46 437.200
XW-2D 23 Aug 18:47:24 18:51:06 58° 260° (W) 18:54:51 145.860 - 145.880
DOVE 4 23 Aug 18:51:02 18:55:18 25° 266° (W) 18:59:30 437.250
XW-2B 23 Aug 18:58:42 19:02:17 43° 261° (W) 19:05:55 145.730 - 145.750
STARS 23 Aug 19:01:39 19:05:59 72° 286° (WNW) 19:10:19 437.465
AAUSAT CUBESAT 2 23 Aug 19:12:41 19:13:40 11° 64° (ENE) 19:14:40 437.432
CUBESAT XI-V 23 Aug 19:15:24 19:16:47 11° 298° (WNW) 19:18:10 437.345
XW-2C 23 Aug 19:18:35 19:21:39 24° 264° (W) 19:24:46 145.795 - 145.815
STRAND 1 23 Aug 19:27:11 19:29:49 14° 91° (E) 19:32:27 437.568
CUTE 1.7 + AOD 2 23 Aug 19:27:29 19:31:39 60° 75° (ENE) 19:35:52 437.475
XW-2F 23 Aug 19:28:22 19:31:07 19° 266° (W) 19:33:54 145.980 - 146.000
O/OREOS (USA 219) 23 Aug 19:38:41 19:43:15 80° 250° (WSW) 19:47:49 437.305
KAITUO 1B 23 Aug 19:48:44 19:50:45 14° 267° (W) 19:52:47 145.475/437.950
CUTE-I 23 Aug 19:50:38 19:54:45 22° 266° (W) 19:58:54 437.470
Oscar 11 23 Aug 19:57:05 19:59:14 14° 65° (ENE) 20:01:22 .
UWE-3 23 Aug 19:58:34 20:02:27 38° 73° (ENE) 20:06:17 435.000/436.395/437.385
SEEDS 23 Aug 20:08:54 20:13:06 71° 259° (W) 20:17:20 437.485
CUBEBUG 2 23 Aug 20:12:26 20:16:42 79° 258° (WSW) 20:20:54 437.445
RS-15 23 Aug 20:16:02 20:28:08 75° 57° (ENE) 20:39:31 29.354- 29.394
HO-68 23 Aug 20:21:22 20:28:10 47° 260° (W) 20:35:01 435.675
XW-2A 23 Aug 20:25:01 20:28:11 43° 261° (W) 20:31:23 145.665 - 145.685
ZACube-1 23 Aug 20:30:41 20:34:39 47° 73° (ENE) 20:38:38 437.345
AAUSAT CUBESAT 2 23 Aug 20:44:26 20:48:33 62° 259° (W) 20:52:43 437.432
AO-73 23 Aug 20:49:41 20:53:47 72° 76° (ENE) 20:57:54 145.935
STRAND 1 23 Aug 21:04:20 21:09:23 62° 287° (WNW) 21:14:24 437.568
CUTE 1.7 + AOD 2 23 Aug 21:07:32 21:07:50 10° 270° (W) 21:08:08 437.475
EO-88 23 Aug 21:14:37 21:15:37 11° 66° (ENE) 21:16:36 145.990 - 145.960
DELFI C3 23 Aug 21:20:22 21:23:40 25° 70° (ENE) 21:26:59 145.870
Oscar 11 23 Aug 21:30:43 21:34:54 51° 261° (W) 21:39:07 .
UWE-3 23 Aug 21:36:35 21:39:02 15° 267° (W) 21:41:30 435.000/436.395/437.385
SO-50 23 Aug 21:46:58 21:49:59 18° 110° (ESE) 21:52:59 436.795
Max Valier Satellite 23 Aug 21:58:44 22:02:17 53° 75° (ENE) 22:05:51 145.860
PCSat 23 Aug 22:05:20 22:10:31 48° 112° (ESE) 22:15:44 145.827
ZACube-1 23 Aug 22:09:34 22:11:11 12° 269° (W) 22:12:48 437.345
FO-29 23 Aug 22:15:44 22:20:59 48° 99° (E) 22:25:58 435.910
TIGRISAT 23 Aug 22:17:14 22:20:21 19° 94° (E) 22:23:29 435.000
PRISM 23 Aug 22:23:24 22:25:39 14° 93° (E) 22:27:53 437.425
RS-15 23 Aug 22:29:58 22:39:19 29° 258° (WSW) 22:48:21 29.354- 29.394
LO-87 23 Aug 22:32:51 22:34:25 13° 67° (ENE) 22:36:00 145.935 - 145.965
EO-88 23 Aug 22:45:22 22:48:50 43° 261° (W) 22:52:21 145.990 - 145.960
DELFI C3 23 Aug 22:55:14 22:58:22 22° 265° (W) 23:01:31 145.870
ESTCUBE 1 23 Aug 23:02:57 23:06:32 24° 68° (ENE) 23:10:09 437.505/2401.250
UNISAT 6 23 Aug 23:18:44 23:23:05 77° 283° (WNW) 23:27:30 437.425
SO-50 23 Aug 23:25:44 23:30:04 45° 306° (NW) 23:34:24 436.795
NO-84 23 Aug 23:43:42 23:45:46 17° 127° (SE) 23:47:45 435.350 FM
PCSat 23 Aug 23:49:46 23:54:08 24° 310° (NW) 23:58:32 145.827
TIGRISAT 23 Aug 23:53:10 23:57:05 34° 289° (WNW) 00:01:05 435.000
PRISM 23 Aug 23:57:13 00:01:05 40° 288° (WNW) 00:04:55 437.425
FO-29 24 Aug 00:01:57 00:05:38 19° 298° (WNW) 00:09:13 435.910
LO-87 24 Aug 00:04:10 00:07:30 36° 262° (W) 00:10:50 145.935 - 145.965
SPROUT 24 Aug 00:12:05 00:15:49 31° 71° (ENE) 00:19:35 437.525
AIST 2D 24 Aug 00:17:33 00:21:04 57° 100° (E) 00:24:33 435.315
VELOX 1 24 Aug 00:30:16 00:34:26 41° 72° (ENE) 00:38:38 145.980
M-CUBED/EXP-1 PRIME 24 Aug 00:31:07 00:35:00 35° 101° (ESE) 00:38:36 437.505
ESTCUBE 1 24 Aug 00:39:12 00:43:10 30° 263° (W) 00:47:09 437.505/2401.250
NANOSAT C BR1 24 Aug 00:41:23 00:45:14 35° 98° (E) 00:49:05 145.865
POLYITAN 1 24 Aug 00:49:15 00:53:21 49° 100° (E) 00:57:27 437.675
EO-79 24 Aug 01:03:57 01:08:11 75° 102° (ESE) 01:12:23 145.935-145.965
QB50P2 24 Aug 01:04:32 01:08:47 85° 102° (ESE) 01:13:00 145.880/145.840
BUGSAT 1 24 Aug 01:16:38 01:19:36 19° 95° (E) 01:22:33 437.445
NO-84 24 Aug 01:20:21 01:22:58 28° 321° (NW) 01:25:31 435.350 FM
UKube-1 24 Aug 01:28:05 01:31:56 32° 70° (ENE) 01:35:47 .
DUCHIFAT 1 24 Aug 01:29:43 01:33:52 69° 285° (WNW) 01:38:02 145.980
SPROUT 24 Aug 01:48:36 01:51:44 20° 266° (W) 01:54:54 437.525
50 SAT 24 Aug 01:49:54 01:53:14 53° 260° (W) 01:56:35 437.505
DX 1 24 Aug 01:56:29 02:00:50 76° 256° (WSW) 02:05:15 434.975-435.025
M-CUBED/EXP-1 PRIME 24 Aug 02:06:09 02:09:05 18° 300° (WNW) 02:11:53 437.505
VELOX 1 24 Aug 02:08:11 02:11:02 17° 267° (W) 02:13:54 145.980
NANOSAT C BR1 24 Aug 02:17:49 02:20:40 18° 293° (WNW) 02:23:31 145.865
ITUPSAT 1 24 Aug 02:19:53 02:22:16 14° 63° (ENE) 02:24:37 437.325
Oscar 19 24 Aug 02:24:52 02:29:56 50° 100° (E) 02:34:58 437.125/150
POLYITAN 1 24 Aug 02:26:37 02:28:41 13° 295° (WNW) 02:30:45 437.675
Gurwin Techsat 1B 24 Aug 02:27:17 02:32:06 34° 97° (E) 02:36:52 435.225
MOZHAYETS 4 24 Aug 02:32:40 02:35:10 15° 65° (ENE) 02:37:42
YUBILEINY 24 Aug 02:34:18 02:42:19 39° 74° (ENE) 02:50:16 435.215
BUGSAT 1 24 Aug 02:51:29 02:54:57 28° 289° (WNW) 02:58:26 437.445
UKube-1 24 Aug 03:04:46 03:07:58 20° 265° (W) 03:11:12 .
BEESAT 24 Aug 03:18:03 03:22:40 55° 73° (ENE) 03:27:19 436.000
ITAMSAT 1 24 Aug 03:53:01 03:57:01 22° 95° (E) 04:01:00 435.822/435.867
ITUPSAT 1 24 Aug 03:54:50 03:59:32 62° 258° (WSW) 04:04:15 437.325
Oscar 19 24 Aug 04:05:12 04:08:50 19° 296° (WNW) 04:12:28 437.125/150
Gurwin Techsat 1B 24 Aug 04:07:24 04:11:52 28° 293° (WNW) 04:16:21 435.225
MOZHAYETS 4 24 Aug 04:07:26 04:11:51 52° 260° (W) 04:16:20
BEESAT 3 24 Aug 04:30:42 04:34:36 58° 118° (ESE) 04:38:35 437.485
